Location: Cahas Mountain Overlook
(37.0833°N, 80.1000°W)
Time: 01:32:45
(UTC-05:00)

Tiros 1 - Visible Passes

Search period start: 29 November 2023 00:00
Search period end: 09 December 2023 00:00
Orbit: 626 x 659 km, 48.4° (Epoch: 28 November)

Date Brightness Start Highest point End Pass type
(mag) Time Alt. Az. Time Alt. Az. Time Alt. Az.
29 Nov 9.0 05:20:56 10° SSW 05:25:05 30° SE 05:29:16 10° ENE visible
30 Nov 10.1 04:07:06 10° SE 04:08:03 11° SE 04:09:16 10° ESE visible
30 Nov 7.5 05:44:46 10° SW 05:49:28 68° SE 05:54:14 10° ENE visible
01 Dec 9.0 04:32:00 26° SE 04:32:12 26° SE 04:36:11 10° ENE visible
01 Dec 7.2 06:09:39 12° WSW 06:14:04 60° NNW 06:18:48 10° NE visible
02 Dec 7.5 04:56:32 60° SE 04:56:33 60° SE 05:01:16 10° ENE visible
02 Dec 7.9 06:34:29 10° W 06:38:52 35° NNW 06:43:16 10° NE visible
03 Dec 7.1 05:20:48 65° WNW 05:21:06 67° NNW 05:25:52 10° NE visible
04 Dec 9.8 04:07:15 16° ENE 04:07:15 16° ENE 04:08:16 10° ENE visible
04 Dec 7.8 05:44:50 33° NW 05:45:51 37° NNW 05:50:20 10° NE visible
05 Dec 9.2 04:31:08 22° NE 04:31:08 22° NE 04:32:55 10° NE visible
05 Dec 8.4 06:08:43 19° NW 06:10:49 26° NNW 06:14:49 10° NE visible
06 Dec 8.8 04:54:54 26° NNE 04:54:54 26° NNE 04:57:22 10° NE visible
06 Dec 8.7 06:32:30 11° NW 06:35:54 21° N 06:39:33 10° NE visible
07 Dec 8.6 05:18:35 26° N 05:18:35 26° N 05:21:50 10° NE visible
08 Dec 8.7 05:42:12 21° NNW 05:42:49 22° N 05:46:31 10° NE visible
